Notices

What's New in latest Release from April 7th, 2021:

- Updated Glossary, including Speed of Maximum Gust, and Total Hourly Precipitation

- Updated national and regional climate services offices contacts and prices information

- Addition of station inventory lists for 1981-2010, 1971-2000, and 1961-1990 Normals.

If you haven't already, please take our survey and provide feedback about our website: https://eccc.sondage-survey.ca/f/LanguageSelection.aspx?s=442ca660-fcf1-47c0-95a9-59707d6fd709

Hourly Data Report for May 24, 2003

TORONTO CITY
ONTARIO

43°40'00.000" N
79°24'00.000" W
112.50 m
6158355
71508
XTO

Download Data

Hourly Data (May 2003)
Hourly Data Report for May 24, 2003
TIME
LST
Temp Definition
°C
Dew Point Definition
°C
Rel Hum Definition
%
Precip. Amount Definition
mm

Wind Dir Definition
10's deg

Wind Spd Definition
km/h
Visibility Definition
km
Stn Press Definition
kPa
Hmdx Definition


Wind Chill Definition


Weather Definition


00:00 12.0 11.5 97   LegendMM LegendMM LegendMM 100.06     LegendNANA
01:00 11.0 10.6 97   LegendMM LegendMM LegendMM 99.99     LegendNANA
02:00 10.2 9.9 98   LegendMM LegendMM LegendMM 99.91     LegendNANA
03:00 9.6 9.3 98   LegendMM LegendMM LegendMM 99.88     LegendNANA
04:00 9.4 9.1 98   LegendMM LegendMM LegendMM 99.85     LegendNANA
05:00 9.6 9.5 99   LegendMM LegendMM LegendMM 99.83     LegendNANA
06:00 9.2 9.1 99   LegendMM LegendMM LegendMM 99.85     LegendNANA
07:00 9.0 9.0 100   LegendMM LegendMM LegendMM 99.89     LegendNANA
08:00 8.8 8.8 100   LegendMM LegendMM LegendMM 99.92     LegendNANA
09:00 9.6 9.6 100   LegendMM LegendMM LegendMM 99.93     LegendNANA
10:00 10.7 10.7 100   LegendMM LegendMM LegendMM 99.94     LegendNANA
11:00 12.3 11.7 96   LegendMM LegendMM LegendMM 99.96     LegendNANA
12:00 14.9 10.9 77   LegendMM LegendMM LegendMM 99.94     LegendNANA
13:00 16.9 10.7 67   LegendMM LegendMM LegendMM 99.91     LegendNANA
14:00 15.9 9.1 64   LegendMM LegendMM LegendMM 99.91     LegendNANA
15:00 15.3 9.2 67   LegendMM LegendMM LegendMM 99.89     LegendNANA
16:00 16.3 9.7 65   LegendMM LegendMM LegendMM 99.90     LegendNANA
17:00 13.7 9.2 74   LegendMM LegendMM LegendMM 99.93     LegendNANA
18:00 10.3 8.2 87   LegendMM LegendMM LegendMM 100.02     LegendNANA
19:00 11.4 9.2 86   LegendMM LegendMM LegendMM 99.96     LegendNANA
20:00 11.3 8.0 80   LegendMM LegendMM LegendMM 99.96     LegendNANA
21:00 10.7 7.8 82   LegendMM LegendMM LegendMM 99.96     LegendNANA
22:00 10.9 8.5 85   LegendMM LegendMM LegendMM 99.94     LegendNANA
23:00 11.0 8.4 84   LegendMM LegendMM LegendMM 99.98     LegendNANA

Notes on Data Quality.

Legend

  • E = Estimated
  • M = Missing
  • NA = Not Available*
  • [empty] = Indicates an unobserved value
Date modified: